| time (UTC) | temp F | wind direction | speed MPH | gust MPH | rain 1hr in | rain 24hr in | rain mn in | humidity % | barometer mb |
| 20260904010109 | 77 | 324 | 2.0 | 6.0 | 0.00 | 0.00 | 0.00 | 73 | 1017.5 |
| 20260904004558 | 77 | 319 | 4.0 | 8.0 | 0.00 | 0.00 | 0.00 | 73 | 1017.3 |
| 20260904003055 | 77 | 345 | 5.0 | 10.0 | 0.00 | 0.00 | 0.00 | 73 | 1017.3 |
| 20260904001554 | 77 | 340 | 1.0 | 6.0 | 0.00 | 0.00 | 0.00 | 71 | 1017.4 |
| 20260904000059 | 77 | 315 | 3.0 | 7.0 | 0.00 | 0.00 | 0.00 | 70 | 1017.4 |
| 20260903234552 | 78 | 294 | 3.0 | 8.0 | 0.00 | 0.00 | 0.00 | 68 | 1017.4 |
| 20260903233049 | 78 | 349 | 3.0 | 10.0 | 0.00 | 0.00 | 0.00 | 67 | 1017.5 |
| 20260903231549 | 78 | 309 | 4.0 | 8.0 | 0.00 | 0.00 | 0.00 | 65 | 1017.4 |
| 20260903230049 | 78 | 335 | 3.0 | 6.0 | 0.00 | 0.00 | 0.00 | 64 | 1017.5 |
| 20260903224545 | 79 | 7 | 3.0 | 8.0 | 0.00 | 0.00 | 0.00 | 64 | 1017.5 |
| 20260903223043 | 79 | 357 | 2.0 | 7.0 | 0.00 | 0.00 | 0.00 | 64 | 1017.5 |
| 20260903221541 | 79 | 324 | 4.0 | 8.0 | 0.00 | 0.00 | 0.00 | 63 | 1017.5 |
| 20260903220040 | 79 | 307 | 4.0 | 8.0 | 0.00 | 0.00 | 0.00 | 63 | 1017.6 |
| 20260903214542 | 80 | 326 | 3.0 | 7.0 | 0.00 | 0.00 | 0.00 | 62 | 1017.5 |
| 20260903213141 | 80 | 329 | 3.0 | 6.0 | 0.00 | 0.00 | 0.00 | 61 | 1017.6 |
| 20260903211536 | 81 | 291 | 3.0 | 7.0 | 0.00 | 0.00 | 0.00 | 59 | 1017.6 |
| 20260903210036 | 82 | 354 | 3.0 | 12.0 | 0.00 | 0.00 | 0.00 | 57 | 1017.5 |
| 20260903204536 | 84 | 22 | 9.0 | 20.0 | 0.00 | 0.00 | 0.00 | 57 | 1017.3 |
| 20260903203100 | 84 | 31 | 13.0 | 21.0 | 0.00 | 0.00 | 0.00 | 55 | 1017.2 |
| 20260903201538 | 84 | 5 | 14.0 | 22.0 | 0.00 | 0.00 | 0.00 | 57 | 1017.2 |
| 20260903200033 | 83 | 359 | 16.0 | 22.0 | 0.00 | 0.00 | 0.00 | 59 | 1017.1 |
| 20260903194536 | 83 | 53 | 16.0 | 23.0 | 0.00 | 0.00 | 0.00 | 62 | 1017.1 |
| 20260903193037 | 83 | 18 | 16.0 | 23.0 | 0.00 | 0.00 | 0.00 | 64 | 1017.0 |
| 20260903191530 | 83 | 356 | 17.0 | 28.0 | 0.00 | 0.00 | 0.00 | 65 | 1017.0 |
| 20260903190031 | 83 | 40 | 18.0 | 26.0 | 0.00 | 0.00 | 0.00 | 70 | 1016.9 |
| 20260903184534 | 83 | 36 | 17.0 | 25.0 | 0.00 | 0.00 | 0.00 | 65 | 1016.7 |
| 20260903183036 | 84 | 44 | 15.0 | 20.0 | 0.00 | 0.00 | 0.00 | 63 | 1016.6 |
| 20260903181529 | 84 | 7 | 11.0 | 21.0 | 0.00 | 0.00 | 0.00 | 62 | 1016.4 |
| 20260903180029 | 84 | 42 | 11.0 | 20.0 | 0.00 | 0.00 | 0.00 | 61 | 1016.3 |
| 20260903174528 | 84 | 28 | 16.0 | 24.0 | 0.00 | 0.00 | 0.00 | 59 | 1016.2 |
| 20260903173027 | 84 | 37 | 14.0 | 20.0 | 0.00 | 0.00 | 0.00 | 60 | 1016.1 |
| 20260903171529 | 85 | 35 | 14.0 | 20.0 | 0.00 | 0.00 | 0.00 | 56 | 1016.0 |
| 20260903170027 | 85 | 44 | 16.0 | 25.0 | 0.00 | 0.00 | 0.00 | 56 | 1016.0 |
| 20260903164526 | 85 | 30 | 16.0 | 23.0 | 0.00 | 0.00 | 0.00 | 61 | 1016.0 |
| 20260903163024 | 85 | 49 | 16.0 | 24.0 | 0.00 | 0.00 | 0.00 | 60 | 1016.1 |
| 20260903161527 | 84 | 61 | 16.0 | 23.0 | 0.00 | 0.00 | 0.00 | 63 | 1016.0 |
| 20260903160031 | 85 | 21 | 17.0 | 25.0 | 0.00 | 0.00 | 0.00 | 62 | 1016.0 |
| 20260903154528 | 85 | 13 | 16.0 | 22.0 | 0.00 | 0.00 | 0.00 | 61 | 1016.1 |
| 20260903153022 | 84 | 32 | 14.0 | 21.0 | 0.00 | 0.00 | 0.00 | 68 | 1016.1 |
| 20260903151521 | 84 | 30 | 16.0 | 23.0 | 0.00 | 0.00 | 0.00 | 67 | 1016.0 |
| 20260903150026 | 84 | 39 | 14.0 | 24.0 | 0.00 | 0.00 | 0.00 | 67 | 1016.0 |
| 20260903144539 | 85 | 10 | 11.0 | 21.0 | 0.00 | 0.00 | 0.00 | 69 | 1016.0 |
| 20260903143032 | 84 | 68 | 15.0 | 23.0 | 0.00 | 0.00 | 0.00 | 73 | 1016.0 |
| 20260903141518 | 85 | 304 | 16.0 | 27.0 | 0.00 | 0.00 | 0.00 | 66 | 1016.0 |
| 20260903140022 | 84 | 44 | 16.0 | 26.0 | 0.00 | 0.00 | 0.00 | 70 | 1016.1 |
| 20260903134517 | 84 | 36 | 21.0 | 28.0 | 0.00 | 0.00 | 0.00 | 68 | 1016.1 |
| 20260903133016 | 84 | 70 | 20.0 | 29.0 | 0.00 | 0.00 | 0.00 | 68 | 1016.2 |
| 20260903131515 | 85 | 54 | 18.0 | 28.0 | 0.00 | 0.00 | 0.00 | 68 | 1016.2 |
| 20260903130014 | 85 | 33 | 18.0 | 31.0 | 0.00 | 0.00 | 0.00 | 68 | 1016.3 |
| 20260903124513 | 84 | 11 | 19.0 | 28.0 | 0.00 | 0.00 | 0.00 | 69 | 1016.3 |
| 20260903123012 | 85 | 23 | 18.0 | 32.0 | 0.00 | 0.00 | 0.00 | 67 | 1016.3 |
| 20260903121526 | 85 | 38 | 19.0 | 30.0 | 0.00 | 0.00 | 0.00 | 62 | 1016.5 |
| 20260903120027 | 85 | 10 | 19.0 | 29.0 | 0.00 | 0.00 | 0.00 | 64 | 1016.5 |
| 20260903114511 | 85 | 82 | 19.0 | 27.0 | 0.00 | 0.00 | 0.00 | 61 | 1016.6 |
| 20260903113018 | 86 | 39 | 15.0 | 27.0 | 0.00 | 0.00 | 0.00 | 60 | 1016.7 |
| 20260903111510 | 85 | 349 | 18.0 | 30.0 | 0.00 | 0.00 | 0.00 | 59 | 1016.8 |
| 20260903110008 | 85 | 49 | 15.0 | 27.0 | 0.00 | 0.00 | 0.00 | 64 | 1016.9 |
| 20260903104507 | 85 | 87 | 13.0 | 20.0 | 0.00 | 0.00 | 0.00 | 63 | 1016.9 |
| 20260903103006 | 85 | 69 | 15.0 | 21.0 | 0.00 | 0.00 | 0.00 | 59 | 1017.1 |
| 20260903101512 | 85 | 359 | 15.0 | 24.0 | 0.00 | 0.00 | 0.00 | 58 | 1017.1 |
| 20260903100007 | 85 | 17 | 13.0 | 19.0 | 0.00 | 0.00 | 0.00 | 55 | 1017.2 |
| 20260903094509 | 85 | 17 | 9.0 | 17.0 | 0.00 | 0.00 | 0.00 | 56 | 1017.4 |
| 20260903093105 | 85 | 33 | 13.0 | 18.0 | 0.00 | 0.00 | 0.00 | 55 | 1017.5 |
| 20260903091600 | 85 | 82 | 7.0 | 15.0 | 0.00 | 0.00 | 0.00 | 58 | 1017.5 |
| 20260903090056 | 84 | 86 | 8.0 | 15.0 | 0.00 | 0.00 | 0.00 | 60 | 1017.4 |
| 20260903084553 | 84 | 35 | 10.0 | 15.0 | 0.00 | 0.00 | 0.00 | 60 | 1017.3 |
| 20260903083052 | 83 | 32 | 9.0 | 17.0 | 0.00 | 0.00 | 0.00 | 63 | 1017.3 |
| 20260903081551 | 83 | 35 | 10.0 | 17.0 | 0.00 | 0.00 | 0.00 | 64 | 1017.2 |
| 20260903080048 | 83 | 15 | 8.0 | 15.0 | 0.00 | 0.00 | 0.00 | 64 | 1017.2 |
| 20260903074548 | 82 | 28 | 9.0 | 15.0 | 0.00 | 0.00 | 0.00 | 68 | 1017.1 |
| 20260903073044 | 81 | 18 | 7.0 | 14.0 | 0.00 | 0.00 | 0.00 | 69 | 1017.1 |
| 20260903071553 | 81 | 12 | 6.0 | 17.0 | 0.00 | 0.00 | 0.00 | 68 | 1017.0 |
| 20260903070042 | 81 | 28 | 8.0 | 15.0 | 0.00 | 0.00 | 0.00 | 66 | 1017.0 |
| 20260903064540 | 81 | 21 | 9.0 | 15.0 | 0.00 | 0.00 | 0.00 | 64 | 1017.0 |
| 20260903063037 | 81 | 8 | 2.0 | 10.0 | 0.00 | 0.00 | 0.00 | 63 | 1017.0 |
| 20260903061536 | 80 | 343 | 3.0 | 12.0 | 0.00 | 0.00 | 0.00 | 63 | 1017.1 |
| 20260903060036 | 79 | 309 | 4.0 | 12.0 | 0.00 | 0.00 | 0.00 | 63 | 1017.0 |
| 20260903054536 | 78 | 359 | 2.0 | 9.0 | 0.00 | 0.00 | 0.00 | 63 | 1017.0 |
| 20260903053035 | 78 | 338 | 3.0 | 8.0 | 0.00 | 0.00 | 0.00 | 64 | 1016.9 |
| 20260903051552 | 77 | 352 | 4.0 | 9.0 | 0.00 | 0.00 | 0.00 | 64 | 1016.9 |
| 20260903050032 | 77 | 347 | 4.0 | 8.0 | 0.00 | 0.00 | 0.00 | 65 | 1016.9 |
| 20260903044539 | 77 | 340 | 2.0 | 7.0 | 0.00 | 0.00 | 0.00 | 67 | 1016.8 |
| 20260903043107 | 77 | 344 | 2.0 | 5.0 | 0.00 | 0.00 | 0.00 | 68 | 1016.7 |
| 20260903041530 | 77 | 286 | 3.0 | 6.0 | 0.00 | 0.00 | 0.00 | 69 | 1016.5 |
| 20260903040028 | 77 | 324 | 1.0 | 5.0 | 0.00 | 0.00 | 0.00 | 70 | 1016.4 |
| 20260903034536 | 77 | 342 | 3.0 | 6.0 | 0.00 | 0.00 | 0.00 | 71 | 1016.5 |
| 20260903033024 | 78 | 301 | 2.0 | 5.0 | 0.00 | 0.00 | 0.00 | 73 | 1016.5 |
| 20260903031523 | 78 | 291 | 2.0 | 6.0 | 0.00 | 0.00 | 0.00 | 75 | 1016.6 |
| 20260903030023 | 78 | 328 | 5.0 | 10.0 | 0.00 | 0.00 | 0.00 | 76 | 1016.6 |
| 20260903024525 | 78 | 341 | 4.0 | 9.0 | 0.00 | 0.00 | 0.00 | 77 | 1016.7 |
| 20260903023020 | 78 | 348 | 4.0 | 11.0 | 0.00 | 0.00 | 0.00 | 78 | 1016.8 |
| 20260903021519 | 78 | 324 | 6.0 | 13.0 | 0.00 | 0.00 | 0.00 | 78 | 1016.9 |
| 20260903020023 | 78 | 16 | 5.0 | 13.0 | 0.00 | 0.00 | 0.00 | 77 | 1017.0 |
| 20260903014521 | 78 | 354 | 5.0 | 9.0 | 0.00 | 0.00 | 0.00 | 77 | 1017.1 |
| 20260903013016 | 78 | 352 | 5.0 | 8.0 | 0.00 | 0.00 | 0.00 | 76 | 1017.2 |
| 20260903011518 | 78 | 348 | 1.0 | 4.0 | 0.00 | 0.00 | 0.00 | 74 | 1017.1 |